默认 日期 大小 文件数 浏览量 最新下载 xml
ktr.磁力链接相关资源由用户搜索指令自动获取,结果来源于网络,本站不存储任何资料,亦不承担任何责任,请于24小时内删除,搜索到611791个磁力,显示前4000条数据,用时44ms。
    {"pml.18.05.19.korina.kova.tata.temptress.mp4": 717547444, "No Dumping Allowed Dumpers! It's Dumped From EroticaLover @ 1337x.txt": 102}
创建时间: 2018-10-29 03:58:58 大小:684.31 MB 文件数量:2 热度:188 最近下载:2025-09-09 21:17:03
    {"poster.jpg": 23024, "screens.jpg": 280113, "hart.14.04.01.victoria.r.the.making.of.the.aquarium.shoot.mp4": 251490692}
创建时间: 2018-10-29 03:59:15 大小:240.13 MB 文件数量:3 热度:142 最近下载:2025-08-13 00:47:03
    {"RARBG.com.txt": 34, "givemepink.14.10.09.jenny.glam.mp4": 3279781108, "givemepink.14.10.09.jenny.glam.nfo": 6965}
创建时间: 2018-10-29 03:59:17 大小:3.05 GB 文件数量:3 热度:54 最近下载:2025-08-24 20:46:02
    {"Sample": {"thefuckingclinic.18.08.22.kesha.ortega-sample.mp4": 65936697}, "thefuckingclinic.18.08.22.kesha.ortega.mp4": 1827671283, "thefuckingclinic.18.08.22.kesha.ortega.nfo": 5192}
创建时间: 2018-10-29 03:59:32 大小:1.76 GB 文件数量:3 热度:41 最近下载:2025-10-17 22:31:02
    {"hegre.18.05.22.tantric.therapy.massage[N1C].mp4": 1654362869}
创建时间: 2018-10-29 03:59:34 大小:1.54 GB 文件数量:1 热度:113 最近下载:2025-10-17 22:31:03
    {"RARBG.com.txt": 34, "puba.e367.mov": 1597682788, "puba.e367.nfo": 5171}
创建时间: 2018-10-29 03:59:44 大小:1.49 GB 文件数量:3 热度:84 最近下载:2025-08-23 06:16:01
    {"Sample": {"babes.14.12.10.alexis.brill.my.prima.bella-sample.mp4": 51597653}, "RARBG.com.txt": 34, "babes.14.12.10.alexis.brill.my.prima.bella.mp4": 1398288298, "babes.14.12.10.alexis.brill.my.prima.bella.nfo": 6975}
创建时间: 2018-10-29 04:00:02 大小:1.35 GB 文件数量:4 热度:80 最近下载:2025-09-17 08:19:02
    {"RARBG.com.txt": 34, "eb.15.11.24.ariel.x.and.savannah.fox.mp4": 2548761915, "eb.15.11.24.ariel.x.and.savannah.fox.nfo": 5206}
创建时间: 2018-10-29 04:01:04 大小:2.37 GB 文件数量:3 热度:95 最近下载:2025-10-11 11:37:03
    {"RARBG.txt": 30, "nubiles.17.08.03.tetti.dew.korti.hot.russian.mp4": 2248175727, "nubiles.17.08.03.tetti.dew.korti.hot.russian.nfo": 5196}
创建时间: 2018-10-29 04:01:08 大小:2.09 GB 文件数量:3 热度:58 最近下载:2025-09-10 19:29:05
    {"Sample": {"ktr.hoh.12.12.27.tigerr. ... ": 76586427}, "RARBG.com.txt": 34, "ktr.hoh.12.12.27.tigerr ... .a.couples.sandwich.mp4": 3333232113, "ktr.hoh.12.12.27.tigerr ...
创建时间: 2018-10-29 04:01:12 大小:3.18 GB 文件数量:4 热度:563 最近下载:2025-10-16 07:16:02
    {"RARBG.txt": 30, "metartfilms.18.09.27.tina.kay.hop-on.4k.repack.mp4": 2138717113, "metartfilms.18.09.27.tina.kay.hop-on.4k.repack.nfo": 5283}
创建时间: 2018-10-29 04:01:27 大小:1.99 GB 文件数量:3 热度:126 最近下载:2025-10-17 22:31:02
    {"RARBG.com.txt": 34, "lezkiss.e38.victoria.and.samantha.nfo": 6969, "lezkiss.e38.victoria.and.samantha.wmv": 3077961330}
创建时间: 2018-10-29 04:02:00 大小:2.87 GB 文件数量:3 热度:37 最近下载:2025-08-04 13:53:08
    {"RARBG.com.txt": 34, "wowp.16.11.30.monika.benz.in.your.absence.4k.mp4": 3132959502, "wowp.16.11.30.monika.benz.in.your.absence.4k.nfo": 5196}
创建时间: 2018-10-29 04:02:33 大小:2.92 GB 文件数量:3 热度:89 最近下载:2025-10-02 20:38:01
    {"RARBG.txt": 30, "tonightsgirlfriend.17.10.06.amia.miley.4k.mp4": 7731278376, "tonightsgirlfriend.17.10.06.amia.miley.4k.nfo": 5201}
创建时间: 2018-10-29 04:02:45 大小:7.2 GB 文件数量:3 热度:169 最近下载:2025-08-10 16:15:03
    {"Sample": {"girlfriends.14.12.26.tracy.a.lazy.afternoon-sample.mov": 89607152}, "RARBG.com.txt": 34, "girlfriends.14.12.26.tracy.a.lazy.afternoon.mov": 1376288308, "girlfriends.14.12.26.tracy.a.lazy.afternoon.nfo": 6982}
创建时间: 2018-10-29 04:03:05 大小:1.37 GB 文件数量:4 热度:52 最近下载:2025-08-05 20:16:02
    {"RARBG.com.txt": 34, "rws.15.11.27.gigi.allens.dick.delivery.mp4": 2350032449, "rws.15.11.27.gigi.allens.dick.delivery.nfo": 5215}
创建时间: 2018-10-29 04:04:20 大小:2.19 GB 文件数量:3 热度:276 最近下载:2025-10-08 10:41:03
    {"RARBG.com.txt": 34, "nw.16.03.07.jenna.j.ross.4k.mp4": 4858569108, "nw.16.03.07.jenna.j.ross.4k.nfo": 5193}
创建时间: 2018-10-29 04:04:38 大小:4.52 GB 文件数量:3 热度:65 最近下载:2025-09-14 11:06:01
    {"RARBG.txt": 30, "woc.17.12.18.sophia.grace.mp4": 4565966901, "woc.17.12.18.sophia.grace.nfo": 5181}
创建时间: 2018-10-29 04:04:46 大小:4.25 GB 文件数量:3 热度:46 最近下载:2025-10-15 16:22:02
    {"RARBG.txt": 30, "grandpasfuckteens.18.08.21.candy.red.sex.is.better.than.hiking.mp4": 1222398789, "grandpasfuckteens.18.08.21.candy.red.sex.is.better.than.hiking.nfo": 5224}
创建时间: 2018-10-29 04:05:14 大小:1.14 GB 文件数量:3 热度:86 最近下载:2025-09-03 17:29:04
    {"RARBG.txt": 30, "fittingroom.18.04.05.apolonia.lapiedra.mp4": 2530744005, "fittingroom.18.04.05.apolonia.lapiedra.nfo": 5196}
创建时间: 2018-10-29 04:05:21 大小:2.36 GB 文件数量:3 热度:184 最近下载:2025-09-04 00:46:02